Location: Casco Volunteer Fire Department
(44.5576°N, 87.6146°W)
Time: 05:27:15
(UTC+00:00)

Meteor 1-16 Rocket - Pass Details

Date: 22 January 2026
Orbit: 789 x 905 km, 81.2° (Epoch: 10 February)

Event Time Altitude Azimuth Distance (km) Brightness Sun altitude
Rises 12:06:34 0° 185° (S) 3,343 7.4 -12.8°
Reaches altitude 10° 12:08:58 10° 184° (S) 2,399 6.7 -12.4°
Maximum altitude 12:14:22 79° 99° (E) 821 4.3 -11.5°
Drops below altitude 10° 12:19:42 10° 13° (NNE) 2,368 6.5 -10.6°
Sets 12:22:04 0° 12° (NNE) 3,297 7.2 -10.2°
